Indianapolis, IN

12:52 AM EDT on September 16, 2019 (GMT -0400)
Indianapolis International

Weather History for KIND - July, 2019

Change the Weather History Date:

Monday, July 29, 2019

  Actual Average Record
Temperature  
Mean Temperature 78 °F 75 °F  
Max Temperature 86 °F 85 °F 100 °F (1941)
Min Temperature 70 °F 66 °F 51 °F (1881)
Degree Days  
Heating Degree Days 0 0  
Month to date heating degree days 0 0  
Since 1 June heating degree days 9 16  
Since 1 July heating degree days 0 0  
Cooling Degree Days 13 10  
Month to date cooling degree days 393 305  
Year to date cooling degree days 707 615  
Since 1 June cooling degree days 596 531  
Growing Degree Days 28 (Base 50)    
Moisture  
Dew Point 69 °F    
Average Humidity 79    
Maximum Humidity 100    
Minimum Humidity 58    
Precipitation  
Precipitation 0.68 in 0.13 in 0.80 in (1903)
Month to date precipitation 3.86 4.30  
Year to date precipitation 33.01 25.95  
Snow  
Snow 0.00 in 0.00 in 0.00 in ()
Month to date snowfall 0.0 0.0  
Since 1 June snowfall 0.0 0.0  
Since 1 July snowfall 0.0 0.0  
Snow Depth 0.00 in    
Sea Level Pressure  
Sea Level Pressure 29.94 in    
Wind  
Wind Speed 11 mph (SSW)    
Max Wind Speed 43 mph    
Max Gust Speed 55 mph    
Visibility 8 miles    
Events Rain , Thunderstorm    
T = Trace of Precipitation, MM = Missing Value Source: NWS Daily Summary

Daily Weather History Graph

Daily Weather History Graph

Search for Another Location

Airport or City:

Astronomy

Jul. 29, 2019 Rise Set
Actual Time 6:41 AM EDT 9:01 PM EDT
Civil Twilight 6:10 AM EDT 9:31 PM EDT
Nautical Twilight 5:33 AM EDT 10:09 PM EDT
Astronomical Twilight 4:51 AM EDT 10:50 PM EDT
Moon 3:52 AM EDT (7/29) 7:04 PM EDT (7/29)
Length of Visible Light 15h 20m
Length of Day
14h 20m
Waning Crescent, 8% of the Moon is Illuminated
Jul 29
Waning Crescent
Jul 31
New
Aug 7
First Quarter
Aug 15
Full
Aug 23
Last Quarter

Hourly Weather History & Observations

Time (EDT) Temp. Heat Index Dew Point Humidity Pressure Visibility Wind Dir Wind Speed Gust Speed Precip Events Conditions
8:54 AM 77.0 °F - 66.9 °F 71% 29.98 in 9.0 mi SSW 11.5 mph - N/A   Scattered Clouds
9:54 AM 81.0 °F 83.8 °F 68.0 °F 65% 29.98 in 10.0 mi SW 13.8 mph - N/A   Mostly Cloudy
10:54 AM 82.0 °F 84.9 °F 68.0 °F 62% 29.96 in 10.0 mi SW 17.3 mph 26.5 mph N/A   Mostly Cloudy
11:54 AM 84.0 °F 87.8 °F 69.1 °F 61% 29.95 in 10.0 mi SSW 17.3 mph 25.3 mph N/A   Mostly Cloudy
12:54 PM 84.9 °F 88.2 °F 68.0 °F 57% 29.93 in 10.0 mi SSW 20.7 mph 31.1 mph N/A   Overcast
1:54 PM 84.0 °F 87.0 °F 68.0 °F 58% 29.92 in 10.0 mi SW 19.6 mph 28.8 mph N/A   Overcast
2:54 PM 82.9 °F 85.4 °F 66.9 °F 58% 29.91 in 10.0 mi SSW 18.4 mph - N/A   Overcast
3:29 PM 82.0 °F 84.9 °F 68.0 °F 62% 29.91 in 10.0 mi South 20.7 mph 26.5 mph N/A Thunderstorm Thunderstorm
3:42 PM 81.0 °F 83.8 °F 68.0 °F 65% 29.94 in 0.5 mi South 27.6 mph 50.6 mph 0.00 in Rain , Thunderstorm Heavy Thunderstorms and Rain
3:45 PM 78.1 °F - 68.0 °F 71% 29.94 in 3.0 mi SW 39.1 mph 55.2 mph 0.00 in Rain , Thunderstorm Thunderstorms and Rain
3:54 PM 72.0 °F - 69.1 °F 91% 29.93 in 6.0 mi SSW 20.7 mph 48.3 mph 0.27 in Rain , Thunderstorm Light Thunderstorms and Rain
4:24 PM 71.1 °F - 69.1 °F 93% 29.94 in 4.0 mi SSW 9.2 mph - 0.05 in Rain Light Rain
4:54 PM 71.1 °F - 69.1 °F 93% 29.93 in 10.0 mi SSW 10.4 mph - 0.09 in Rain Light Rain
5:54 PM 71.1 °F - 69.1 °F 93% 29.93 in 10.0 mi SSW 11.5 mph - 0.01 in Rain Light Rain
6:54 PM 72.0 °F - 70.0 °F 93% 29.93 in 10.0 mi SW 8.1 mph - 0.01 in Rain Light Rain
7:14 PM 71.1 °F - 70.0 °F 96% 29.94 in 2.0 mi SSW 8.1 mph - 0.02 in Rain Heavy Rain
7:46 PM 71.1 °F - 70.0 °F 96% 29.94 in 4.0 mi South 9.2 mph - 0.10 in Rain Rain
7:54 PM 71.1 °F - 70.0 °F 96% 29.92 in 4.0 mi South 8.1 mph - 0.11 in Rain , Thunderstorm Thunderstorms and Rain
8:22 PM 71.1 °F - 70.0 °F 96% 29.94 in 3.0 mi South 11.5 mph - 0.12 in Rain Rain
8:37 PM 71.1 °F - 70.0 °F 96% 29.93 in 7.0 mi SSE 6.9 mph - 0.17 in Rain Light Rain
8:54 PM 71.1 °F - 70.0 °F 96% 29.91 in 6.0 mi SSE 4.6 mph - 0.19 in Rain Light Rain
9:09 PM 71.1 °F - 70.0 °F 96% 29.93 in 10.0 mi South 8.1 mph - 0.00 in   Overcast
9:54 PM 71.1 °F - 70.0 °F 96% 29.92 in 10.0 mi SSW 8.1 mph - 0.00 in   Overcast
10:54 PM 72.0 °F - 70.0 °F 93% 29.94 in 9.0 mi SW 9.2 mph - N/A   Overcast
11:54 PM 72.0 °F - 71.1 °F 97% 29.94 in 7.0 mi SW 9.2 mph - N/A   Overcast